Starlink 31825

operational
NORAD ID: 60056 Int'l Des: 2024-112 Owner: SPXS Country: US Constellation: starlink
LEOCIRCULAR

关于 Starlink 31825

正在加载描述...

实时位置

正在加载3D地球...

即将过境

高度历史

Altitude vs Time

uPlot chart will show altitude changes over time

两行轨道根数

1 60056U 24112U 25260.99694140 .00003750 00000-0 13865-3 0 9995
2 60056 53.1579 160.3502 0000700 61.2764 298.8307 15.30198889 72153
Epoch: Sep 17, 2025 • Age: 15 hours

当前状态

高度 481.0 km
速度 7.63 km/s
星下点 51.31°N, 54°E
发射日期 Jun 8, 2024
运行时间 1.2 years
类型 internet

技术详情

分类 Payload
质量 730.00 kg
干质量 700.00 kg
总质量 730.00 kg
长度 0.30 m
直径 4.10 m
跨度 29.00 m
形状 Box + pan
制造商 SPXS
平台类型 Starlink V2M
阶段状态 In Orbit
所有者/国家 SPXS/US

大型星座

Loading constellations...